Front Ariake — C6RX9 — position and weather

sailwx.info

Track history (hours):
 
Tides and Currents Weather Stations Pressure Air Temp Water Temp Dewpoint Dewpoint Depression Visibility Wind Speed Wind Dir Waves Ship Positions

Front Ariake

Last reported at 2018-Feb-25 10:45 UTC. Time now 2018-Apr-21 09:55 UTC.
Position N 01°20' E 103°17'.
Warning: this ship's position is 54 days out of date.

Length 333 m; draft 11 m.

Type: Tanker. MMSI: 311226956.

Date/timePositionNaut miles runAvg speedWind from/ knotsBaromVisibWave heightAir tempDewpointWater temp
2018-Feb-25 10:45N 01°20' E 103°17'3 9.4
2018-Feb-25 10:23N 01°18' E 103°19'5 9.4
2018-Feb-25 09:53N 01°15' E 103°23'4 9.2
2018-Feb-25 09:29N 01°14' E 103°26'5 9.9
2018-Feb-25 08:59N 01°13' E 103°31'5 9.7
2018-Feb-25 08:30N 01°12' E 103°36'5 9.5
2018-Feb-25 08:01N 01°10' E 103°40'4 8.7
2018-Feb-25 07:31N 01°08' E 103°44'5 9.3
2018-Feb-25 07:00N 01°11' E 103°48'4 8.8
2018-Feb-25 06:30N 01°12' E 103°52'4 8.3
2018-Feb-25 06:01N 01°14' E 103°56'2 3.5
2018-Feb-25 05:30N 01°16' E 103°56'1 1.1
2018-Feb-25 04:55N 01°16' E 103°55'0 0.0
2018-Feb-25 03:10N 01°16' E 103°55'0 0.1
2018-Feb-25 02:55N 01°16' E 103°55'0 0.0
2018-Feb-25 02:19N 01°16' E 103°55'0 0.0
2018-Feb-25 01:37N 01°16' E 103°55'0 0.0
2018-Feb-25 01:25N 01°16' E 103°55'0 0.1
2018-Feb-25 00:57N 01°16' E 103°55'0 0.1
2018-Feb-25 00:21N 01°16' E 103°55'0 0.1
2018-Feb-24 23:45N 01°16' E 103°55'0 0.2
2018-Feb-24 23:21N 01°16' E 103°55'0 0.2
2018-Feb-24 22:57N 01°16' E 103°55'0 0.1
2018-Feb-24 22:27N 01°16' E 103°55'0 0.0
2018-Feb-24 21:57N 01°16' E 103°55'0 0.0
2018-Feb-24 20:39N 01°16' E 103°55'0 0.0
2018-Feb-24 20:30N 01°16' E 103°55'0 0.0
2018-Feb-24 19:45N 01°16' E 103°55'0 0.1
2018-Feb-24 18:30N 01°16' E 103°55'0 0.0
2018-Feb-24 17:27N 01°16' E 103°55'0 0.1
2018-Feb-24 16:54N 01°16' E 103°55'0 0.0
2018-Feb-24 16:15N 01°16' E 103°55'0 0.0
2018-Feb-24 15:51N 01°16' E 103°55'0 0.0
2018-Feb-24 15:21N 01°16' E 103°55'0 0.0
2018-Feb-24 14:57N 01°16' E 103°55'0 0.1
2018-Feb-24 14:21N 01°16' E 103°55'0 0.0
2018-Feb-24 13:57N 01°16' E 103°55'0 0.0
2018-Feb-24 12:06N 01°16' E 103°55'0 0.0
2018-Feb-24 11:48N 01°16' E 103°55'0 0.2
2018-Feb-24 11:24N 01°16' E 103°55'0 0.1
2018-Feb-24 10:57N 01°16' E 103°55'0 0.0
2018-Feb-24 10:03N 01°16' E 103°55'0 0.0
2018-Feb-24 09:33N 01°16' E 103°55'0 0.2
2018-Feb-24 09:27N 01°16' E 103°55'0 0.1
2018-Feb-24 08:57N 01°16' E 103°55'0 0.8
2018-Feb-24 08:30N 01°16' E 103°55'1 2.7
2018-Feb-24 08:01N 01°15' E 103°56'3 6.1
2018-Feb-24 07:28N 01°16' E 103°59'  
2018-Feb-16 03:46N 01°16' E 104°12'4 9.2
2018-Feb-16 03:21N 01°15' E 104°08'6 6.0
2018-Feb-16 02:18N 01°14' E 104°02'3 9.2
2018-Feb-16 02:00N 01°14' E 103°59'5 9.5
2018-Feb-16 01:29N 01°13' E 103°55'4 8.8
2018-Feb-16 00:59N 01°11' E 103°51'4 8.5
2018-Feb-16 00:30N 01°09' E 103°47'5 9.2
2018-Feb-16 00:00N 01°06' E 103°44'4 8.6
2018-Feb-15 23:30N 01°04' E 103°40'4 7.4
2018-Feb-15 22:59N 01°05' E 103°36'4 7.5
2018-Feb-15 22:30N 01°07' E 103°33'4 7.5
2018-Feb-15 21:59N 01°09' E 103°30'4 7.8
2018-Feb-15 21:30N 01°11' E 103°27'4 7.8
2018-Feb-15 20:58N 01°12' E 103°23'5 8.2
2018-Feb-15 20:22N 01°16' E 103°19'5 9.0
2018-Feb-15 19:51N 01°19' E 103°16'  
Track history (hours):
 
Tides and Currents Weather Stations Pressure Air Temp Water Temp Dewpoint Dewpoint Depression Visibility Wind Speed Wind Dir Waves Ship Positions

Front Ariake

Last reported at 2018-Feb-25 10:45 UTC. Time now 2018-Apr-21 09:55 UTC.
Position N 01°20' E 103°17'.
Warning: this ship's position is 54 days out of date.

Length 333 m; draft 11 m.

Type: Tanker. MMSI: 311226956.

Date/timePositionNaut miles runAvg speedWind from/ knotsBaromVisibWave heightAir tempDewpointWater temp
2018-Feb-25 10:45N 01°20' E 103°17'3 9.4
2018-Feb-25 10:23N 01°18' E 103°19'5 9.4
2018-Feb-25 09:53N 01°15' E 103°23'4 9.2
2018-Feb-25 09:29N 01°14' E 103°26'5 9.9
2018-Feb-25 08:59N 01°13' E 103°31'5 9.7
2018-Feb-25 08:30N 01°12' E 103°36'5 9.5
2018-Feb-25 08:01N 01°10' E 103°40'4 8.7
2018-Feb-25 07:31N 01°08' E 103°44'5 9.3
2018-Feb-25 07:00N 01°11' E 103°48'4 8.8
2018-Feb-25 06:30N 01°12' E 103°52'4 8.3
2018-Feb-25 06:01N 01°14' E 103°56'2 3.5
2018-Feb-25 05:30N 01°16' E 103°56'1 1.1
2018-Feb-25 04:55N 01°16' E 103°55'0 0.0
2018-Feb-25 03:10N 01°16' E 103°55'0 0.1
2018-Feb-25 02:55N 01°16' E 103°55'0 0.0
2018-Feb-25 02:19N 01°16' E 103°55'0 0.0
2018-Feb-25 01:37N 01°16' E 103°55'0 0.0
2018-Feb-25 01:25N 01°16' E 103°55'0 0.1
2018-Feb-25 00:57N 01°16' E 103°55'0 0.1
2018-Feb-25 00:21N 01°16' E 103°55'0 0.1
2018-Feb-24 23:45N 01°16' E 103°55'0 0.2
2018-Feb-24 23:21N 01°16' E 103°55'0 0.2
2018-Feb-24 22:57N 01°16' E 103°55'0 0.1
2018-Feb-24 22:27N 01°16' E 103°55'0 0.0
2018-Feb-24 21:57N 01°16' E 103°55'0 0.0
2018-Feb-24 20:39N 01°16' E 103°55'0 0.0
2018-Feb-24 20:30N 01°16' E 103°55'0 0.0
2018-Feb-24 19:45N 01°16' E 103°55'0 0.1
2018-Feb-24 18:30N 01°16' E 103°55'0 0.0
2018-Feb-24 17:27N 01°16' E 103°55'0 0.1
2018-Feb-24 16:54N 01°16' E 103°55'0 0.0
2018-Feb-24 16:15N 01°16' E 103°55'0 0.0
2018-Feb-24 15:51N 01°16' E 103°55'0 0.0
2018-Feb-24 15:21N 01°16' E 103°55'0 0.0
2018-Feb-24 14:57N 01°16' E 103°55'0 0.1
2018-Feb-24 14:21N 01°16' E 103°55'0 0.0
2018-Feb-24 13:57N 01°16' E 103°55'0 0.0
2018-Feb-24 12:06N 01°16' E 103°55'0 0.0
2018-Feb-24 11:48N 01°16' E 103°55'0 0.2
2018-Feb-24 11:24N 01°16' E 103°55'0 0.1
2018-Feb-24 10:57N 01°16' E 103°55'0 0.0
2018-Feb-24 10:03N 01°16' E 103°55'0 0.0
2018-Feb-24 09:33N 01°16' E 103°55'0 0.2
2018-Feb-24 09:27N 01°16' E 103°55'0 0.1
2018-Feb-24 08:57N 01°16' E 103°55'0 0.8
2018-Feb-24 08:30N 01°16' E 103°55'1 2.7
2018-Feb-24 08:01N 01°15' E 103°56'3 6.1
2018-Feb-24 07:28N 01°16' E 103°59'  
2018-Feb-16 03:46N 01°16' E 104°12'4 9.2
2018-Feb-16 03:21N 01°15' E 104°08'6 6.0
2018-Feb-16 02:18N 01°14' E 104°02'3 9.2
2018-Feb-16 02:00N 01°14' E 103°59'5 9.5
2018-Feb-16 01:29N 01°13' E 103°55'4 8.8
2018-Feb-16 00:59N 01°11' E 103°51'4 8.5
2018-Feb-16 00:30N 01°09' E 103°47'5 9.2
2018-Feb-16 00:00N 01°06' E 103°44'4 8.6
2018-Feb-15 23:30N 01°04' E 103°40'4 7.4
2018-Feb-15 22:59N 01°05' E 103°36'4 7.5
2018-Feb-15 22:30N 01°07' E 103°33'4 7.5
2018-Feb-15 21:59N 01°09' E 103°30'4 7.8
2018-Feb-15 21:30N 01°11' E 103°27'4 7.8
2018-Feb-15 20:58N 01°12' E 103°23'5 8.2
2018-Feb-15 20:22N 01°16' E 103°19'5 9.0
2018-Feb-15 19:51N 01°19' E 103°16'  

Dump ship's entire track history